When you browse on this site, cookies collect data to enhance your experience and personalize the content and advertising you see.
Visit our Privacy Policy to learn more. By continuing to use the site, you agree to this use of cookies and data.
  • In United Kingdom
  • List of Countries
  • For 7 days
  • Water Temperature
  • Weather Map
  • Weather Widgets
  • user-avatar
    Login

    Hourly Weather La Ceiba

    Today, 5 December, Thursday

    Time Temperature Precipitation Wind Pressure Humidity
    00:00 +24°C° 0 mm 3 mps 761 mmHg 97%
    01:00 +24°C° 0.4 mm 3 mps 761 mmHg 97%
    02:00 +24°C° 0.4 mm 2 mps 761 mmHg 98%
    03:00 +23°C° 0.4 mm 2 mps 760 mmHg 98%
    04:00 +23°C° 0.3 mm 2 mps 761 mmHg 98%
    05:00 +23°C° 0.3 mm 2 mps 761 mmHg 98%
    06:00 +23°C° 0 mm 2 mps 761 mmHg 97%
    07:00 +25°C° 0.1 mm 2 mps 762 mmHg 90%
    08:00 +27°C° 0.1 mm 2 mps 762 mmHg 84%
    09:00 +28°C° 0.1 mm 2 mps 763 mmHg 77%
    10:00 +29°C° 0 mm 3 mps 762 mmHg 74%
    11:00 +30°C° 0 mm 3 mps 762 mmHg 71%
    12:00 +30°C° 0 mm 4 mps 761 mmHg 68%
    13:00 +30°C° 0.1 mm 4 mps 761 mmHg 70%
    14:00 +30°C° 0.1 mm 4 mps 760 mmHg 73%
    15:00 +29°C° 0.1 mm 5 mps 760 mmHg 75%
    16:00 +28°C° 0 mm 5 mps 760 mmHg 81%
    17:00 +26°C° 0 mm 4 mps 761 mmHg 87%
    18:00 +25°C° 0 mm 4 mps 761 mmHg 93%
    19:00 +23°C° 0 mm 4 mps 762 mmHg 94%
    20:00 +23°C° 0 mm 4 mps 762 mmHg 95%
    21:00 +23°C° 0 mm 4 mps 763 mmHg 96%
    22:00 +22°C° 0 mm 4 mps 763 mmHg 95%
    23:00 +22°C° 0 mm 3 mps 763 mmHg 95%

    Tomorrow, 6 December, Friday

    Time Temperature Precipitation Wind Pressure Humidity
    00:00 +22°C° 0 mm 3 mps 762 mmHg 95%
    01:00 +22°C° 0 mm 3 mps 762 mmHg 94%
    02:00 +23°C° 0 mm 2 mps 762 mmHg 93%
    03:00 +23°C° 0 mm 2 mps 762 mmHg 92%
    04:00 +23°C° 0 mm 2 mps 762 mmHg 93%
    05:00 +21°C° 0 mm 2 mps 762 mmHg 94%
    06:00 +21°C° 0 mm 2 mps 762 mmHg 95%
    07:00 +24°C° 0 mm 2 mps 763 mmHg 88%
    08:00 +26°C° 0 mm 2 mps 763 mmHg 80%
    09:00 +28°C° 0 mm 2 mps 764 mmHg 73%
    10:00 +29°C° 0 mm 2 mps 763 mmHg 69%
    11:00 +30°C° 0 mm 3 mps 762 mmHg 65%
    12:00 +31°C° 0 mm 3 mps 762 mmHg 61%
    13:00 +30°C° 0 mm 4 mps 762 mmHg 64%
    14:00 +30°C° 0 mm 4 mps 761 mmHg 67%
    15:00 +30°C° 0 mm 4 mps 761 mmHg 70%
    16:00 +28°C° 0 mm 4 mps 761 mmHg 76%
    17:00 +27°C° 0 mm 4 mps 761 mmHg 83%
    18:00 +25°C° 0 mm 4 mps 762 mmHg 90%
    19:00 +25°C° 0 mm 3 mps 762 mmHg 91%
    20:00 +25°C° 0 mm 3 mps 763 mmHg 92%
    21:00 +25°C° 0 mm 3 mps 763 mmHg 93%
    22:00 +24°C° 0 mm 3 mps 763 mmHg 93%
    23:00 +24°C° 0 mm 3 mps 763 mmHg 93%

    Day after tomorrow, 7 December, Saturday

    Time Temperature Precipitation Wind Pressure Humidity
    00:00 +24°C° 0 mm 2 mps 763 mmHg 94%
    01:00 +24°C° 0.1 mm 2 mps 763 mmHg 93%
    02:00 +25°C° 0.1 mm 2 mps 763 mmHg 92%
    03:00 +25°C° 0.1 mm 1 mps 762 mmHg 91%
    04:00 +25°C° 0 mm 1 mps 763 mmHg 91%
    05:00 +25°C° 0 mm 1 mps 763 mmHg 91%
    06:00 +24°C° 0 mm 1 mps 763 mmHg 91%
    07:00 +26°C° 0 mm 1 mps 763 mmHg 83%
    08:00 +28°C° 0 mm 1 mps 764 mmHg 76%
    09:00 +29°C° 0 mm 1 mps 764 mmHg 69%
    10:00 +29°C° 0 mm 2 mps 764 mmHg 68%
    11:00 +30°C° 0 mm 2 mps 763 mmHg 67%
    12:00 +30°C° 0 mm 3 mps 762 mmHg 65%
    13:00 +29°C° 0 mm 2 mps 762 mmHg 68%
    14:00 +29°C° 0 mm 2 mps 762 mmHg 70%
    15:00 +28°C° 0 mm 2 mps 761 mmHg 73%
    16:00 +27°C° 0 mm 2 mps 762 mmHg 77%
    17:00 +26°C° 0 mm 2 mps 762 mmHg 82%
    18:00 +25°C° 0 mm 1 mps 762 mmHg 86%
    19:00 +25°C° 0 mm 1 mps 763 mmHg 87%
    20:00 +24°C° 0 mm 1 mps 763 mmHg 88%
    21:00 +24°C° 0 mm 1 mps 764 mmHg 88%
    22:00 +24°C° 0 mm 1 mps 763 mmHg 90%
    23:00 +23°C° 0 mm 1 mps 763 mmHg 91%

    8 December, Sunday

    Time Temperature Precipitation Wind Pressure Humidity
    00:00 +23°C° 0 mm 1 mps 763 mmHg 92%
    01:00 +23°C° 0.1 mm 1 mps 763 mmHg 93%
    02:00 +23°C° 0.1 mm 1 mps 762 mmHg 94%
    03:00 +23°C° 0.1 mm 1 mps 762 mmHg 94%
    04:00 +23°C° 0.3 mm 1 mps 762 mmHg 95%
    05:00 +23°C° 0.3 mm 1 mps 762 mmHg 95%
    06:00 +21°C° 0.3 mm 0 mps 762 mmHg 95%
    07:00 +24°C° 0.2 mm 1 mps 763 mmHg 94%
    08:00 +25°C° 0.2 mm 1 mps 763 mmHg 93%
    09:00 +26°C° 0.2 mm 1 mps 763 mmHg 92%
    10:00 +27°C° 0.1 mm 1 mps 763 mmHg 86%
    11:00 +28°C° 0.1 mm 1 mps 762 mmHg 81%
    12:00 +29°C° 0.1 mm 1 mps 762 mmHg 76%
    13:00 +29°C° 0.1 mm 1 mps 761 mmHg 76%
    14:00 +28°C° 0.1 mm 1 mps 761 mmHg 76%
    15:00 +28°C° 0.1 mm 2 mps 760 mmHg 77%
    16:00 +27°C° 0.1 mm 2 mps 760 mmHg 82%
    17:00 +26°C° 0.1 mm 2 mps 760 mmHg 88%
    18:00 +25°C° 0.1 mm 2 mps 761 mmHg 94%
    19:00 +25°C° 0.1 mm 2 mps 761 mmHg 94%
    20:00 +25°C° 0.1 mm 2 mps 761 mmHg 94%
    21:00 +24°C° 0.1 mm 2 mps 762 mmHg 93%
    22:00 +24°C° 0 mm 2 mps 762 mmHg 94%
    23:00 +24°C° 0 mm 2 mps 761 mmHg 95%

    9 December, Monday

    Time Temperature Precipitation Wind Pressure Humidity
    00:00 +23°C° 0 mm 2 mps 761 mmHg 96%
    01:00 +23°C° 0 mm 2 mps 761 mmHg 96%
    02:00 +23°C° 0 mm 2 mps 761 mmHg 96%
    03:00 +23°C° 0 mm 1 mps 760 mmHg 97%
    04:00 +22°C° 0 mm 1 mps 760 mmHg 97%
    05:00 +22°C° 0 mm 1 mps 761 mmHg 97%
    06:00 +22°C° 0 mm 1 mps 761 mmHg 97%
    07:00 +24°C° 0 mm 1 mps 761 mmHg 88%
    08:00 +27°C° 0 mm 1 mps 761 mmHg 79%
    09:00 +29°C° 0 mm 1 mps 762 mmHg 69%
    10:00 +30°C° 0 mm 1 mps 761 mmHg 66%
    11:00 +31°C° 0 mm 2 mps 760 mmHg 62%
    12:00 +33°C° 0 mm 3 mps 760 mmHg 59%
    13:00 +33°C° 0 mm 3 mps 759 mmHg 61%
    14:00 +31°C° 0 mm 3 mps 759 mmHg 63%
    15:00 +31°C° 0 mm 3 mps 758 mmHg 65%
    16:00 +29°C° 0 mm 3 mps 758 mmHg 75%
    17:00 +27°C° 0 mm 3 mps 759 mmHg 85%
    18:00 +25°C° 0 mm 3 mps 759 mmHg 96%
    19:00 +25°C° 0 mm 2 mps 759 mmHg 96%
    20:00 +25°C° 0 mm 2 mps 760 mmHg 97%
    21:00 +24°C° 0 mm 2 mps 760 mmHg 97%
    22:00 +24°C° 0 mm 2 mps 760 mmHg 97%
    23:00 +24°C° 0 mm 2 mps 760 mmHg 97%

    10 December, Tuesday

    Time Temperature Precipitation Wind Pressure Humidity
    00:00 +24°C° 0 mm 2 mps 760 mmHg 98%
    01:00 +24°C° 0 mm 2 mps 759 mmHg 97%
    02:00 +24°C° 0 mm 1 mps 759 mmHg 97%
    03:00 +24°C° 0 mm 1 mps 759 mmHg 97%
    04:00 +24°C° 0 mm 1 mps 759 mmHg 97%
    05:00 +23°C° 0 mm 1 mps 760 mmHg 96%
    06:00 +23°C° 0 mm 1 mps 760 mmHg 96%
    07:00 +26°C° 0 mm 1 mps 760 mmHg 86%
    08:00 +28°C° 0 mm 1 mps 761 mmHg 76%
    09:00 +31°C° 0 mm 1 mps 761 mmHg 65%
    10:00 +32°C° 0 mm 1 mps 761 mmHg 59%
    11:00 +34°C° 0 mm 2 mps 760 mmHg 53%
    12:00 +36°C° 0 mm 2 mps 759 mmHg 47%
    13:00 +35°C° 0 mm 2 mps 759 mmHg 50%
    14:00 +34°C° 0 mm 2 mps 759 mmHg 54%
    15:00 +34°C° 0 mm 2 mps 758 mmHg 58%
    16:00 +31°C° 0 mm 2 mps 759 mmHg 71%
    17:00 +28°C° 0 mm 2 mps 759 mmHg 83%
    18:00 +26°C° 0 mm 3 mps 760 mmHg 96%
    19:00 +26°C° 0.2 mm 3 mps 760 mmHg 96%
    20:00 +26°C° 0.2 mm 3 mps 761 mmHg 96%
    21:00 +25°C° 0.2 mm 3 mps 762 mmHg 97%
    22:00 +25°C° 0.2 mm 3 mps 761 mmHg 97%
    23:00 +25°C° 0.2 mm 3 mps 761 mmHg 97%
    Show more